Stations météo

réclame
Mon MeteoGroup
Fyvie castle, Grande-Bretagne (99010): Température de l'air & dewpoint: 12.02.2018 04:00:00 - 18.02.2018 04:00:00 (GMT)Fyvie castle, Grande-Bretagne (99010): Quantités de précipitations: 12.02.2018 04:00:00 - 18.02.2018 04:00:00 (GMT)
Date & Time tt [°C] td [°C] rr [mm]
18.02.2018 04:00:00 1,4 -0,1 0,0
18.02.2018 03:00:00 1,3 -0,4 0,0
18.02.2018 02:00:00 1,6 -0,7 0,0
18.02.2018 01:00:00 2,6 0,0 0,0
18.02.2018 00:00:00 1,8 -0,5 0,0
17.02.2018 23:00:00 2,0 -0,7 0,0
17.02.2018 22:00:00 1,5 -0,4 0,0
17.02.2018 21:00:00 0,9 -1,1 0,0
17.02.2018 20:00:00 2,0 -0,8 0,0
17.02.2018 19:00:00 0,5 -1,6 0,0
17.02.2018 18:00:00 2,0 -1,6 0,0
17.02.2018 17:00:00 5,0 -1,0 0,0
17.02.2018 16:00:00 7,4 0,1 0,0
17.02.2018 15:00:00 7,3 -0,1 0,0
17.02.2018 14:00:00 8,9 1,4 0,0
17.02.2018 13:00:00 7,1 2,1 0,0
17.02.2018 12:00:00 6,8 1,5 0,0
17.02.2018 11:00:00 6,5 1,8 0,0
17.02.2018 10:00:00 3,9 1,5 0,0
17.02.2018 09:00:00 1,4 0,9 0,0
17.02.2018 08:00:00 0,7 -0,1 0,0
17.02.2018 07:00:00 2,3 1,2 0,0
17.02.2018 06:00:00 2,8 0,8 0,0
17.02.2018 05:00:00 4,1 1,4 0,0
17.02.2018 04:00:00 4,5 1,8 0,0
17.02.2018 03:00:00 4,7 1,9 0,0
17.02.2018 02:00:00 4,7 2,0 0,0
17.02.2018 01:00:00 4,6 2,8 0,0
17.02.2018 00:00:00 4,7 2,5 0,0
16.02.2018 23:00:00 4,9 1,6 0,0
16.02.2018 22:00:00 5,0 2,0 0,0
16.02.2018 21:00:00 5,0 2,4 0,0
16.02.2018 20:00:00 4,0 1,8 0,0
16.02.2018 19:00:00 4,4 1,4 0,0
16.02.2018 18:00:00 5,0 0,8 0,0
16.02.2018 17:00:00 5,0 0,0 0,0
16.02.2018 16:00:00 5,9 -0,9 0,0
16.02.2018 15:00:00 7,9 0,3 0,0
16.02.2018 14:00:00 7,7 0,1 0,0
16.02.2018 13:00:00 7,2 -1,3 0,0
16.02.2018 12:00:00 6,8 -0,9 0,0
16.02.2018 11:00:00 5,2 -0,6 0,0
16.02.2018 10:00:00 2,1 -1,5 0,0
16.02.2018 09:00:00 2,2 -1,8 0,0
16.02.2018 08:00:00 1,8 -2,3 0,0
16.02.2018 07:00:00 2,2 -2,5 0,0
16.02.2018 06:00:00 2,1 -2,0 0,0
16.02.2018 05:00:00 1,9 -2,4 0,0
16.02.2018 04:00:00 2,6 -1,8 0,0
16.02.2018 03:00:00 3,1 -1,6 0,0
16.02.2018 02:00:00 3,1 -1,1 0,0
16.02.2018 01:00:00 2,8 -0,9 0,0
16.02.2018 00:00:00 3,2 -0,6 0,0
15.02.2018 23:00:00 3,7 -0,6 0,0
15.02.2018 22:00:00 4,1 -0,6 0,0
15.02.2018 21:00:00 3,6 -0,3 0,0
15.02.2018 20:00:00 3,6 -0,2 0,0
15.02.2018 19:00:00 3,4 -0,1 0,0
15.02.2018 18:00:00 3,6 -0,2 0,0
15.02.2018 17:00:00 4,6 -0,3 0,0
15.02.2018 16:00:00 4,8 -0,5 0,0
15.02.2018 15:00:00 6,4 -0,6 0,0
15.02.2018 14:00:00 4,8 -1,5 0,0
15.02.2018 13:00:00 4,4 -2,0 0,0
15.02.2018 12:00:00 5,6 -1,7 0,0
15.02.2018 11:00:00 4,8 -1,5 0,0
15.02.2018 10:00:00 3,8 -1,8 0,0
15.02.2018 09:00:00 3,2 -1,5 0,0
15.02.2018 08:00:00 2,0 -1,0 0,0
15.02.2018 07:00:00 2,9 -1,0 0,0
15.02.2018 06:00:00 2,8 -0,9 0,0
15.02.2018 05:00:00 2,4 -0,6 0,0
15.02.2018 04:00:00 3,1 -0,1 0,0
15.02.2018 03:00:00 3,7 0,3 0,0
15.02.2018 02:00:00 3,3 0,4 0,0
15.02.2018 01:00:00 3,4 -0,5 0,0
15.02.2018 00:00:00 2,8 0,7 0,0
14.02.2018 23:00:00 3,3 1,4 0,0
14.02.2018 22:00:00 3,0 1,8 0,0
14.02.2018 21:00:00 3,0 2,0 0,0
14.02.2018 20:00:00 3,0 2,2 0,2
14.02.2018 19:00:00 3,2 2,3 0,2
14.02.2018 18:00:00 3,3 1,9 0,0
14.02.2018 17:00:00 2,8 1,4 0,0
14.02.2018 16:00:00 2,7 1,1 0,0
14.02.2018 15:00:00 2,2 0,7 0,0
14.02.2018 14:00:00 1,7 0,7 0,4
14.02.2018 13:00:00 1,1 -0,2 0,0
14.02.2018 12:00:00 2,6 -2,1 0,0
14.02.2018 11:00:00 2,9 -2,3 0,0
14.02.2018 10:00:00 2,8 -2,7 -
14.02.2018 09:00:00 2,6 -1,7 0,0
14.02.2018 08:00:00 2,4 -1,0 0,0
14.02.2018 07:00:00 2,4 -0,6 0,0
14.02.2018 06:00:00 1,5 -0,6 0,0
14.02.2018 05:00:00 -0,3 -2,3 0,0
14.02.2018 04:00:00 -0,6 -2,2 0,0
14.02.2018 03:00:00 -1,0 -2,1 0,0
14.02.2018 02:00:00 -2,3 -4,0 0,0
14.02.2018 01:00:00 0,0 -2,8 0,0
14.02.2018 00:00:00 -2,7 -3,4 0,0
13.02.2018 23:00:00 -2,9 -3,6 0,0
13.02.2018 22:00:00 -2,3 -3,1 0,0
13.02.2018 21:00:00 -2,2 -3,3 0,0
13.02.2018 20:00:00 -1,9 -3,0 0,0
13.02.2018 19:00:00 -1,8 -2,5 0,0
13.02.2018 18:00:00 -1,1 -1,8 0,0
13.02.2018 17:00:00 0,1 -0,9 0,0
13.02.2018 16:00:00 3,0 2,2 0,0
13.02.2018 15:00:00 1,4 0,9 0,0
13.02.2018 14:00:00 1,2 0,7 0,0
13.02.2018 13:00:00 0,9 0,4 0,0
13.02.2018 12:00:00 0,7 0,2 0,0
13.02.2018 11:00:00 0,6 0,0 0,0
13.02.2018 10:00:00 1,7 1,0 0,0
13.02.2018 09:00:00 1,6 1,0 0,0
13.02.2018 08:00:00 1,2 0,6 0,0
13.02.2018 07:00:00 1,5 0,5 0,0
13.02.2018 06:00:00 2,7 0,5 0,0
13.02.2018 05:00:00 3,1 0,0 0,0
13.02.2018 04:00:00 3,3 0,0 0,0
13.02.2018 03:00:00 3,1 0,1 0,0
13.02.2018 02:00:00 2,9 -0,1 0,0
13.02.2018 01:00:00 1,8 -0,6 0,0
13.02.2018 00:00:00 1,8 -1,5 0,0
12.02.2018 23:00:00 1,0 -2,0 0,0
12.02.2018 22:00:00 -0,2 -2,5 0,0
12.02.2018 21:00:00 0,6 -2,3 0,0
12.02.2018 20:00:00 0,6 -1,8 0,0
12.02.2018 19:00:00 - - -
12.02.2018 18:00:00 - - -
12.02.2018 17:00:00 - - -
12.02.2018 16:00:00 - - -
12.02.2018 15:00:00 - - -
12.02.2018 14:00:00 - - -
12.02.2018 13:00:00 4,7 -3,0 0,0
12.02.2018 12:00:00 4,5 -2,8 0,0
12.02.2018 11:00:00 3,6 -2,3 0,0
12.02.2018 10:00:00 -0,2 -2,5 0,0
12.02.2018 09:00:00 -2,5 -3,6 0,0
12.02.2018 08:00:00 -3,1 -4,8 0,0
12.02.2018 07:00:00 -2,1 -4,4 0,0
12.02.2018 06:00:00 -0,7 -4,3 0,0
12.02.2018 05:00:00 -0,1 -4,2 0,0
12.02.2018 04:00:00 -0,1 -4,0 0,0

tt = Température de l'air
td = dewpoint
rr = Quantités de précipitations

stations d'obs. à proximité